owner,sensor,date,latitude,longitude,air_temperature,qcFlag 
WAVCIS,ioos:station:WAVCIS:CSI03:1,2016-01-01T00:00:00Z,29.4412,-92.0613,13.31,11111222 
WAVCIS,ioos:station:WAVCIS:CSI03:1,2016-01-01T01:00:00Z,29.4412,-92.0613,13.38,11111222 
WAVCIS,ioos:station:WAVCIS:CSI03:1,2016-01-01T02:00:00Z,29.4412,-92.0613,13.2,11111222 
WAVCIS,ioos:station:WAVCIS:CSI03:1,2016-01-01T03:00:00Z,29.4412,-92.0613,12.94,11111222 
WAVCIS,ioos:station:WAVCIS:CSI03:1,2016-01-01T04:00:00Z,29.4412,-92.0613,12.76,11111222 
WAVCIS,ioos:station:WAVCIS:CSI03:1,2016-01-01T05:00:00Z,29.4412,-92.0613,12.73,11111222 
WAVCIS,ioos:station:WAVCIS:CSI03:1,2016-01-01T06:00:00Z,29.4412,-92.0613,12.54,11111222 
WAVCIS,ioos:station:WAVCIS:CSI03:1,2016-01-01T07:00:00Z,29.4412,-92.0613,9.46,11111222 
WAVCIS,ioos:station:WAVCIS:CSI03:1,2016-01-01T08:00:00Z,29.4412,-92.0613,8.5,11111222 
WAVCIS,ioos:station:WAVCIS:CSI03:1,2016-01-01T09:00:00Z,29.4412,-92.0613,8.52,11111222 
WAVCIS,ioos:station:WAVCIS:CSI03:1,2016-01-01T10:00:00Z,29.4412,-92.0613,8.79,11111222 
WAVCIS,ioos:station:WAVCIS:CSI03:1,2016-01-01T11:00:00Z,29.4412,-92.0613,8.81,11111222 
WAVCIS,ioos:station:WAVCIS:CSI03:1,2016-01-01T12:00:00Z,29.4412,-92.0613,8.7,11111222 
WAVCIS,ioos:station:WAVCIS:CSI03:1,2016-01-01T13:00:00Z,29.4412,-92.0613,8.58,11111222 
WAVCIS,ioos:station:WAVCIS:CSI03:1,2016-01-01T14:00:00Z,29.4412,-92.0613,8.14,11111222 
WAVCIS,ioos:station:WAVCIS:CSI03:1,2016-01-01T15:00:00Z,29.4412,-92.0613,8.15,11111222 
WAVCIS,ioos:station:WAVCIS:CSI03:1,2016-01-01T16:00:00Z,29.4412,-92.0613,8.24,11111222 
WAVCIS,ioos:station:WAVCIS:CSI03:1,2016-01-01T17:00:00Z,29.4412,-92.0613,8.17,11111222 
WAVCIS,ioos:station:WAVCIS:CSI03:1,2016-01-01T18:00:00Z,29.4412,-92.0613,8.53,11111222 
WAVCIS,ioos:station:WAVCIS:CSI03:1,2016-01-01T19:00:00Z,29.4412,-92.0613,8.9,11111222 
WAVCIS,ioos:station:WAVCIS:CSI03:1,2016-01-01T20:00:00Z,29.4412,-92.0613,8.81,11111222 
WAVCIS,ioos:station:WAVCIS:CSI03:1,2016-01-01T21:00:00Z,29.4412,-92.0613,8.55,11111222 
WAVCIS,ioos:station:WAVCIS:CSI03:1,2016-01-01T22:00:00Z,29.4412,-92.0613,7.86,11111222 
WAVCIS,ioos:station:WAVCIS:CSI03:1,2016-01-01T23:00:00Z,29.4412,-92.0613,8.07,11111222 
WAVCIS,ioos:station:WAVCIS:CSI03:1,2016-01-02T00:00:00Z,29.4412,-92.0613,8.07,11111222 
WAVCIS,ioos:station:WAVCIS:CSI03:1,2016-01-02T01:00:00Z,29.4412,-92.0613,7.99,11111222 
WAVCIS,ioos:station:WAVCIS:CSI03:1,2016-01-02T02:00:00Z,29.4412,-92.0613,8.32,11111222 
WAVCIS,ioos:station:WAVCIS:CSI03:1,2016-01-02T03:00:00Z,29.4412,-92.0613,8.42,11111222 
WAVCIS,ioos:station:WAVCIS:CSI03:1,2016-01-02T04:00:00Z,29.4412,-92.0613,8.46,11111222 
WAVCIS,ioos:station:WAVCIS:CSI03:1,2016-01-02T05:00:00Z,29.4412,-92.0613,8.62,11111222 
WAVCIS,ioos:station:WAVCIS:CSI03:1,2016-01-02T06:00:00Z,29.4412,-92.0613,8.43,11111222 
WAVCIS,ioos:station:WAVCIS:CSI03:1,2016-01-02T07:00:00Z,29.4412,-92.0613,8.39,11111222 
WAVCIS,ioos:station:WAVCIS:CSI03:1,2016-01-02T08:00:00Z,29.4412,-92.0613,8.33,11111222 
WAVCIS,ioos:station:WAVCIS:CSI03:1,2016-01-02T09:00:00Z,29.4412,-92.0613,8.31,11111222 
WAVCIS,ioos:station:WAVCIS:CSI03:1,2016-01-02T10:00:00Z,29.4412,-92.0613,8.07,11111222 
WAVCIS,ioos:station:WAVCIS:CSI03:1,2016-01-02T11:00:00Z,29.4412,-92.0613,7.92,11111222 
WAVCIS,ioos:station:WAVCIS:CSI03:1,2016-01-02T12:00:00Z,29.4412,-92.0613,7.87,11111222 
WAVCIS,ioos:station:WAVCIS:CSI03:1,2016-01-02T13:00:00Z,29.4412,-92.0613,7.75,11111222 
WAVCIS,ioos:station:WAVCIS:CSI03:1,2016-01-02T14:00:00Z,29.4412,-92.0613,7.55,11111222 
WAVCIS,ioos:station:WAVCIS:CSI03:1,2016-01-02T15:00:00Z,29.4412,-92.0613,7.57,11111222 
WAVCIS,ioos:station:WAVCIS:CSI03:1,2016-01-02T16:00:00Z,29.4412,-92.0613,7.56,11111222 
WAVCIS,ioos:station:WAVCIS:CSI03:1,2016-01-02T17:00:00Z,29.4412,-92.0613,7.83,11111222 
WAVCIS,ioos:station:WAVCIS:CSI03:1,2016-01-02T18:00:00Z,29.4412,-92.0613,8.2,11111222 
WAVCIS,ioos:station:WAVCIS:CSI03:1,2016-01-02T19:00:00Z,29.4412,-92.0613,8.55,11111222 
WAVCIS,ioos:station:WAVCIS:CSI03:1,2016-01-02T20:00:00Z,29.4412,-92.0613,8.98,11111222 
WAVCIS,ioos:station:WAVCIS:CSI03:1,2016-01-02T21:00:00Z,29.4412,-92.0613,9.21,11111222 
WAVCIS,ioos:station:WAVCIS:CSI03:1,2016-01-02T22:00:00Z,29.4412,-92.0613,8.77,11111222 
WAVCIS,ioos:station:WAVCIS:CSI03:1,2016-01-02T23:00:00Z,29.4412,-92.0613,8.76,11111222 
WAVCIS,ioos:station:WAVCIS:CSI03:1,2016-01-03T00:00:00Z,29.4412,-92.0613,8.55,11111222 
WAVCIS,ioos:station:WAVCIS:CSI03:1,2016-01-03T01:00:00Z,29.4412,-92.0613,8.95,11111222 
WAVCIS,ioos:station:WAVCIS:CSI03:1,2016-01-03T02:00:00Z,29.4412,-92.0613,9.39,11111222 
WAVCIS,ioos:station:WAVCIS:CSI03:1,2016-01-03T03:00:00Z,29.4412,-92.0613,9.39,11111222 
WAVCIS,ioos:station:WAVCIS:CSI03:1,2016-01-03T04:00:00Z,29.4412,-92.0613,9.13,11111222 
WAVCIS,ioos:station:WAVCIS:CSI03:1,2016-01-03T05:00:00Z,29.4412,-92.0613,9.09,11111222 
WAVCIS,ioos:station:WAVCIS:CSI03:1,2016-01-03T06:00:00Z,29.4412,-92.0613,9.05,11111222 
WAVCIS,ioos:station:WAVCIS:CSI03:1,2016-01-03T07:00:00Z,29.4412,-92.0613,8.91,11111222 
WAVCIS,ioos:station:WAVCIS:CSI03:1,2016-01-03T08:00:00Z,29.4412,-92.0613,8.81,11111222 
WAVCIS,ioos:station:WAVCIS:CSI03:1,2016-01-03T09:00:00Z,29.4412,-92.0613,8.86,11111222 
WAVCIS,ioos:station:WAVCIS:CSI03:1,2016-01-03T10:00:00Z,29.4412,-92.0613,8.89,11111222 
WAVCIS,ioos:station:WAVCIS:CSI03:1,2016-01-03T11:00:00Z,29.4412,-92.0613,8.58,11111222 
WAVCIS,ioos:station:WAVCIS:CSI03:1,2016-01-03T12:00:00Z,29.4412,-92.0613,8.68,11111222 
WAVCIS,ioos:station:WAVCIS:CSI03:1,2016-01-03T13:00:00Z,29.4412,-92.0613,8.36,11111222 
WAVCIS,ioos:station:WAVCIS:CSI03:1,2016-01-03T14:00:00Z,29.4412,-92.0613,8.54,11111222 
WAVCIS,ioos:station:WAVCIS:CSI03:1,2016-01-03T15:00:00Z,29.4412,-92.0613,8.34,11111222 
WAVCIS,ioos:station:WAVCIS:CSI03:1,2016-01-03T16:00:00Z,29.4412,-92.0613,8.8,11111222 
WAVCIS,ioos:station:WAVCIS:CSI03:1,2016-01-03T17:00:00Z,29.4412,-92.0613,9.09,11111222 
WAVCIS,ioos:station:WAVCIS:CSI03:1,2016-01-03T18:00:00Z,29.4412,-92.0613,9.25,11111222 
WAVCIS,ioos:station:WAVCIS:CSI03:1,2016-01-03T19:00:00Z,29.4412,-92.0613,9.74,11111222 
WAVCIS,ioos:station:WAVCIS:CSI03:1,2016-01-03T20:00:00Z,29.4412,-92.0613,10.4,11111222 
WAVCIS,ioos:station:WAVCIS:CSI03:1,2016-01-03T21:00:00Z,29.4412,-92.0613,10.98,11111222 
WAVCIS,ioos:station:WAVCIS:CSI03:1,2016-01-03T22:00:00Z,29.4412,-92.0613,11.8,11111222 
WAVCIS,ioos:station:WAVCIS:CSI03:1,2016-01-03T23:00:00Z,29.4412,-92.0613,12.25,11111222 
WAVCIS,ioos:station:WAVCIS:CSI03:1,2016-01-04T00:00:00Z,29.4412,-92.0613,11.96,11111222 
WAVCIS,ioos:station:WAVCIS:CSI03:1,2016-01-04T01:00:00Z,29.4412,-92.0613,11.85,11111222 
WAVCIS,ioos:station:WAVCIS:CSI03:1,2016-01-04T02:00:00Z,29.4412,-92.0613,11.59,11111222 
WAVCIS,ioos:station:WAVCIS:CSI03:1,2016-01-04T03:00:00Z,29.4412,-92.0613,11.57,11111222 
WAVCIS,ioos:station:WAVCIS:CSI03:1,2016-01-04T04:00:00Z,29.4412,-92.0613,11.52,11111222 
WAVCIS,ioos:station:WAVCIS:CSI03:1,2016-01-04T05:00:00Z,29.4412,-92.0613,11.85,11111222 
WAVCIS,ioos:station:WAVCIS:CSI03:1,2016-01-04T06:00:00Z,29.4412,-92.0613,11.82,11111222 
WAVCIS,ioos:station:WAVCIS:CSI03:1,2016-01-04T07:00:00Z,29.4412,-92.0613,11.18,11111222 
WAVCIS,ioos:station:WAVCIS:CSI03:1,2016-01-04T08:00:00Z,29.4412,-92.0613,10.46,11111222 
WAVCIS,ioos:station:WAVCIS:CSI03:1,2016-01-04T09:00:00Z,29.4412,-92.0613,10.35,11111222 
WAVCIS,ioos:station:WAVCIS:CSI03:1,2016-01-04T10:00:00Z,29.4412,-92.0613,9.99,11111222 
WAVCIS,ioos:station:WAVCIS:CSI03:1,2016-01-04T11:00:00Z,29.4412,-92.0613,10.03,11111222 
WAVCIS,ioos:station:WAVCIS:CSI03:1,2016-01-04T12:00:00Z,29.4412,-92.0613,10.36,11111222 
WAVCIS,ioos:station:WAVCIS:CSI03:1,2016-01-04T13:00:00Z,29.4412,-92.0613,10.38,11111222 
WAVCIS,ioos:station:WAVCIS:CSI03:1,2016-01-04T14:00:00Z,29.4412,-92.0613,10.37,11111222 
WAVCIS,ioos:station:WAVCIS:CSI03:1,2016-01-04T15:00:00Z,29.4412,-92.0613,10.01,11111222 
WAVCIS,ioos:station:WAVCIS:CSI03:1,2016-01-04T16:00:00Z,29.4412,-92.0613,10.02,11111222 
WAVCIS,ioos:station:WAVCIS:CSI03:1,2016-01-04T17:00:00Z,29.4412,-92.0613,10.34,11111222 
WAVCIS,ioos:station:WAVCIS:CSI03:1,2016-01-04T18:00:00Z,29.4412,-92.0613,11.06,11111222 
WAVCIS,ioos:station:WAVCIS:CSI03:1,2016-01-04T19:00:00Z,29.4412,-92.0613,11.05,11111222 
WAVCIS,ioos:station:WAVCIS:CSI03:1,2016-01-04T20:00:00Z,29.4412,-92.0613,11.6,11111222 
WAVCIS,ioos:station:WAVCIS:CSI03:1,2016-01-04T21:00:00Z,29.4412,-92.0613,12.24,11111222 
WAVCIS,ioos:station:WAVCIS:CSI03:1,2016-01-04T22:00:00Z,29.4412,-92.0613,13.0,11111222 
WAVCIS,ioos:station:WAVCIS:CSI03:1,2016-01-04T23:00:00Z,29.4412,-92.0613,13.06,11111222 
WAVCIS,ioos:station:WAVCIS:CSI03:1,2016-01-05T00:00:00Z,29.4412,-92.0613,12.76,11111222 
WAVCIS,ioos:station:WAVCIS:CSI03:1,2016-01-05T01:00:00Z,29.4412,-92.0613,12.12,11111222 
WAVCIS,ioos:station:WAVCIS:CSI03:1,2016-01-05T02:00:00Z,29.4412,-92.0613,11.01,11111222 
WAVCIS,ioos:station:WAVCIS:CSI03:1,2016-01-05T03:00:00Z,29.4412,-92.0613,10.01,11111222 
WAVCIS,ioos:station:WAVCIS:CSI03:1,2016-01-05T04:00:00Z,29.4412,-92.0613,8.98,11111222 
WAVCIS,ioos:station:WAVCIS:CSI03:1,2016-01-05T05:00:00Z,29.4412,-92.0613,8.14,11111222 
WAVCIS,ioos:station:WAVCIS:CSI03:1,2016-01-05T06:00:00Z,29.4412,-92.0613,7.72,11111222 
WAVCIS,ioos:station:WAVCIS:CSI03:1,2016-01-05T07:00:00Z,29.4412,-92.0613,7.47,11111222 
WAVCIS,ioos:station:WAVCIS:CSI03:1,2016-01-05T08:00:00Z,29.4412,-92.0613,6.89,11111222 
WAVCIS,ioos:station:WAVCIS:CSI03:1,2016-01-05T09:00:00Z,29.4412,-92.0613,6.152,11111222 
WAVCIS,ioos:station:WAVCIS:CSI03:1,2016-01-05T10:00:00Z,29.4412,-92.0613,5.868,11111222 
WAVCIS,ioos:station:WAVCIS:CSI03:1,2016-01-05T11:00:00Z,29.4412,-92.0613,5.195,11111222 
WAVCIS,ioos:station:WAVCIS:CSI03:1,2016-01-05T12:00:00Z,29.4412,-92.0613,4.93,11111222 
WAVCIS,ioos:station:WAVCIS:CSI03:1,2016-01-05T13:00:00Z,29.4412,-92.0613,4.775,11111222 
WAVCIS,ioos:station:WAVCIS:CSI03:1,2016-01-05T14:00:00Z,29.4412,-92.0613,4.908,11111222 
WAVCIS,ioos:station:WAVCIS:CSI03:1,2016-01-05T15:00:00Z,29.4412,-92.0613,5.201,11111222 
WAVCIS,ioos:station:WAVCIS:CSI03:1,2016-01-05T16:00:00Z,29.4412,-92.0613,5.314,11111222 
WAVCIS,ioos:station:WAVCIS:CSI03:1,2016-01-05T17:00:00Z,29.4412,-92.0613,5.846,11111222 
WAVCIS,ioos:station:WAVCIS:CSI03:1,2016-01-05T18:00:00Z,29.4412,-92.0613,7.26,11111222 
WAVCIS,ioos:station:WAVCIS:CSI03:1,2016-01-05T19:00:00Z,29.4412,-92.0613,8.6,11111222 
WAVCIS,ioos:station:WAVCIS:CSI03:1,2016-01-05T20:00:00Z,29.4412,-92.0613,8.97,11111222 
WAVCIS,ioos:station:WAVCIS:CSI03:1,2016-01-05T21:00:00Z,29.4412,-92.0613,9.88,11111222 
WAVCIS,ioos:station:WAVCIS:CSI03:1,2016-01-05T22:00:00Z,29.4412,-92.0613,11.13,11111222 
WAVCIS,ioos:station:WAVCIS:CSI03:1,2016-01-05T23:00:00Z,29.4412,-92.0613,10.79,11111222 
WAVCIS,ioos:station:WAVCIS:CSI03:1,2016-01-06T00:00:00Z,29.4412,-92.0613,10.55,11111222 
WAVCIS,ioos:station:WAVCIS:CSI03:1,2016-01-06T01:00:00Z,29.4412,-92.0613,10.64,11111222 
WAVCIS,ioos:station:WAVCIS:CSI03:1,2016-01-06T02:00:00Z,29.4412,-92.0613,10.42,11111222 
WAVCIS,ioos:station:WAVCIS:CSI03:1,2016-01-06T03:00:00Z,29.4412,-92.0613,10.22,11111222 
WAVCIS,ioos:station:WAVCIS:CSI03:1,2016-01-06T04:00:00Z,29.4412,-92.0613,10.26,11111222 
WAVCIS,ioos:station:WAVCIS:CSI03:1,2016-01-06T05:00:00Z,29.4412,-92.0613,10.75,11111222 
WAVCIS,ioos:station:WAVCIS:CSI03:1,2016-01-06T06:00:00Z,29.4412,-92.0613,10.77,11111222 
WAVCIS,ioos:station:WAVCIS:CSI03:1,2016-01-06T07:00:00Z,29.4412,-92.0613,10.57,11111222 
WAVCIS,ioos:station:WAVCIS:CSI03:1,2016-01-06T08:00:00Z,29.4412,-92.0613,10.77,11111222 
WAVCIS,ioos:station:WAVCIS:CSI03:1,2016-01-06T09:00:00Z,29.4412,-92.0613,10.82,11111222 
WAVCIS,ioos:station:WAVCIS:CSI03:1,2016-01-06T10:00:00Z,29.4412,-92.0613,11.19,11111222 
WAVCIS,ioos:station:WAVCIS:CSI03:1,2016-01-06T11:00:00Z,29.4412,-92.0613,11.56,11111222 
WAVCIS,ioos:station:WAVCIS:CSI03:1,2016-01-06T12:00:00Z,29.4412,-92.0613,11.63,11111222 
WAVCIS,ioos:station:WAVCIS:CSI03:1,2016-01-06T13:00:00Z,29.4412,-92.0613,11.4,11111222 
WAVCIS,ioos:station:WAVCIS:CSI03:1,2016-01-06T14:00:00Z,29.4412,-92.0613,11.5,11111222 
WAVCIS,ioos:station:WAVCIS:CSI03:1,2016-01-06T15:00:00Z,29.4412,-92.0613,11.62,11111222 
WAVCIS,ioos:station:WAVCIS:CSI03:1,2016-01-06T16:00:00Z,29.4412,-92.0613,11.95,11111222 
WAVCIS,ioos:station:WAVCIS:CSI03:1,2016-01-06T17:00:00Z,29.4412,-92.0613,12.49,11111222 
WAVCIS,ioos:station:WAVCIS:CSI03:1,2016-01-06T18:00:00Z,29.4412,-92.0613,13.71,11111222 
WAVCIS,ioos:station:WAVCIS:CSI03:1,2016-01-06T19:00:00Z,29.4412,-92.0613,14.19,11111222 
WAVCIS,ioos:station:WAVCIS:CSI03:1,2016-01-06T20:00:00Z,29.4412,-92.0613,14.59,11111222 
WAVCIS,ioos:station:WAVCIS:CSI03:1,2016-01-06T21:00:00Z,29.4412,-92.0613,14.9,11111222 
WAVCIS,ioos:station:WAVCIS:CSI03:1,2016-01-06T22:00:00Z,29.4412,-92.0613,14.76,11111222 
WAVCIS,ioos:station:WAVCIS:CSI03:1,2016-01-06T23:00:00Z,29.4412,-92.0613,14.87,11111222 
WAVCIS,ioos:station:WAVCIS:CSI03:1,2016-01-07T00:00:00Z,29.4412,-92.0613,14.82,11111222 
WAVCIS,ioos:station:WAVCIS:CSI03:1,2016-01-07T01:00:00Z,29.4412,-92.0613,14.74,11111222 
WAVCIS,ioos:station:WAVCIS:CSI03:1,2016-01-07T02:00:00Z,29.4412,-92.0613,14.32,11111222 
WAVCIS,ioos:station:WAVCIS:CSI03:1,2016-01-07T03:00:00Z,29.4412,-92.0613,13.9,11111222 
WAVCIS,ioos:station:WAVCIS:CSI03:1,2016-01-07T04:00:00Z,29.4412,-92.0613,13.73,11111222 
WAVCIS,ioos:station:WAVCIS:CSI03:1,2016-01-07T05:00:00Z,29.4412,-92.0613,13.49,11111222 
WAVCIS,ioos:station:WAVCIS:CSI03:1,2016-01-07T06:00:00Z,29.4412,-92.0613,13.31,11111222 
WAVCIS,ioos:station:WAVCIS:CSI03:1,2016-01-07T07:00:00Z,29.4412,-92.0613,13.52,11111222 
WAVCIS,ioos:station:WAVCIS:CSI03:1,2016-01-07T08:00:00Z,29.4412,-92.0613,13.67,11111222 
WAVCIS,ioos:station:WAVCIS:CSI03:1,2016-01-07T09:00:00Z,29.4412,-92.0613,13.76,11111222 
WAVCIS,ioos:station:WAVCIS:CSI03:1,2016-01-07T10:00:00Z,29.4412,-92.0613,13.72,11111222 
WAVCIS,ioos:station:WAVCIS:CSI03:1,2016-01-07T11:00:00Z,29.4412,-92.0613,13.86,11111222 
WAVCIS,ioos:station:WAVCIS:CSI03:1,2016-01-07T12:00:00Z,29.4412,-92.0613,14.59,11111222 
WAVCIS,ioos:station:WAVCIS:CSI03:1,2016-01-07T13:00:00Z,29.4412,-92.0613,13.94,11111222 
WAVCIS,ioos:station:WAVCIS:CSI03:1,2016-01-07T14:00:00Z,29.4412,-92.0613,13.69,11111222 
WAVCIS,ioos:station:WAVCIS:CSI03:1,2016-01-07T15:00:00Z,29.4412,-92.0613,14.74,11111222 
WAVCIS,ioos:station:WAVCIS:CSI03:1,2016-01-07T16:00:00Z,29.4412,-92.0613,15.04,11111222 
WAVCIS,ioos:station:WAVCIS:CSI03:1,2016-01-07T17:00:00Z,29.4412,-92.0613,14.24,11111222 
WAVCIS,ioos:station:WAVCIS:CSI03:1,2016-01-07T18:00:00Z,29.4412,-92.0613,13.78,11111222 
WAVCIS,ioos:station:WAVCIS:CSI03:1,2016-01-07T19:00:00Z,29.4412,-92.0613,14.57,11111222 
WAVCIS,ioos:station:WAVCIS:CSI03:1,2016-01-07T20:00:00Z,29.4412,-92.0613,14.84,11111222 
WAVCIS,ioos:station:WAVCIS:CSI03:1,2016-01-07T21:00:00Z,29.4412,-92.0613,14.81,11111222 
WAVCIS,ioos:station:WAVCIS:CSI03:1,2016-01-07T22:00:00Z,29.4412,-92.0613,14.41,11111222 
WAVCIS,ioos:station:WAVCIS:CSI03:1,2016-01-07T23:00:00Z,29.4412,-92.0613,13.81,11111222 
WAVCIS,ioos:station:WAVCIS:CSI03:1,2016-01-08T00:00:00Z,29.4412,-92.0613,13.89,11111222 
WAVCIS,ioos:station:WAVCIS:CSI03:1,2016-01-08T01:00:00Z,29.4412,-92.0613,14.43,11111222 
WAVCIS,ioos:station:WAVCIS:CSI03:1,2016-01-08T02:00:00Z,29.4412,-92.0613,13.9,11111222 
WAVCIS,ioos:station:WAVCIS:CSI03:1,2016-01-08T03:00:00Z,29.4412,-92.0613,13.61,11111222 
WAVCIS,ioos:station:WAVCIS:CSI03:1,2016-01-08T04:00:00Z,29.4412,-92.0613,13.21,11111222 
WAVCIS,ioos:station:WAVCIS:CSI03:1,2016-01-08T05:00:00Z,29.4412,-92.0613,13.11,11111222 
WAVCIS,ioos:station:WAVCIS:CSI03:1,2016-01-08T06:00:00Z,29.4412,-92.0613,12.67,11111222 
WAVCIS,ioos:station:WAVCIS:CSI03:1,2016-01-08T07:00:00Z,29.4412,-92.0613,12.28,11111222 
WAVCIS,ioos:station:WAVCIS:CSI03:1,2016-01-08T08:00:00Z,29.4412,-92.0613,12.2,11111222 
WAVCIS,ioos:station:WAVCIS:CSI03:1,2016-01-08T09:00:00Z,29.4412,-92.0613,12.6,11111222 
WAVCIS,ioos:station:WAVCIS:CSI03:1,2016-01-08T10:00:00Z,29.4412,-92.0613,12.63,11111222 
WAVCIS,ioos:station:WAVCIS:CSI03:1,2016-01-08T11:00:00Z,29.4412,-92.0613,12.27,11111222 
WAVCIS,ioos:station:WAVCIS:CSI03:1,2016-01-08T12:00:00Z,29.4412,-92.0613,11.82,11111222 
WAVCIS,ioos:station:WAVCIS:CSI03:1,2016-01-08T13:00:00Z,29.4412,-92.0613,11.28,11111222 
WAVCIS,ioos:station:WAVCIS:CSI03:1,2016-01-08T14:00:00Z,29.4412,-92.0613,11.41,11111222 
WAVCIS,ioos:station:WAVCIS:CSI03:1,2016-01-08T15:00:00Z,29.4412,-92.0613,12.21,11111222 
WAVCIS,ioos:station:WAVCIS:CSI03:1,2016-01-08T16:00:00Z,29.4412,-92.0613,12.27,11111222 
WAVCIS,ioos:station:WAVCIS:CSI03:1,2016-01-08T17:00:00Z,29.4412,-92.0613,12.83,11111222 
WAVCIS,ioos:station:WAVCIS:CSI03:1,2016-01-08T18:00:00Z,29.4412,-92.0613,13.01,11111222 
WAVCIS,ioos:station:WAVCIS:CSI03:1,2016-01-08T19:00:00Z,29.4412,-92.0613,12.56,11111222 
WAVCIS,ioos:station:WAVCIS:CSI03:1,2016-01-08T20:00:00Z,29.4412,-92.0613,13.3,11111222 
WAVCIS,ioos:station:WAVCIS:CSI03:1,2016-01-08T21:00:00Z,29.4412,-92.0613,13.76,11111222 
WAVCIS,ioos:station:WAVCIS:CSI03:1,2016-01-08T22:00:00Z,29.4412,-92.0613,13.99,11111222 
WAVCIS,ioos:station:WAVCIS:CSI03:1,2016-01-08T23:00:00Z,29.4412,-92.0613,13.58,11111222 
WAVCIS,ioos:station:WAVCIS:CSI03:1,2016-01-09T00:00:00Z,29.4412,-92.0613,13.31,11111222 
WAVCIS,ioos:station:WAVCIS:CSI03:1,2016-01-09T01:00:00Z,29.4412,-92.0613,13.28,11111222 
WAVCIS,ioos:station:WAVCIS:CSI03:1,2016-01-09T02:00:00Z,29.4412,-92.0613,13.41,11111222 
WAVCIS,ioos:station:WAVCIS:CSI03:1,2016-01-09T03:00:00Z,29.4412,-92.0613,13.77,11111222 
WAVCIS,ioos:station:WAVCIS:CSI03:1,2016-01-09T04:00:00Z,29.4412,-92.0613,13.94,11111222 
WAVCIS,ioos:station:WAVCIS:CSI03:1,2016-01-09T05:00:00Z,29.4412,-92.0613,14.53,11111222 
WAVCIS,ioos:station:WAVCIS:CSI03:1,2016-01-09T06:00:00Z,29.4412,-92.0613,14.97,11111222 
WAVCIS,ioos:station:WAVCIS:CSI03:1,2016-01-09T07:00:00Z,29.4412,-92.0613,14.6,11111222 
WAVCIS,ioos:station:WAVCIS:CSI03:1,2016-01-09T08:00:00Z,29.4412,-92.0613,13.87,11111222 
WAVCIS,ioos:station:WAVCIS:CSI03:1,2016-01-09T09:00:00Z,29.4412,-92.0613,15.01,11111222 
WAVCIS,ioos:station:WAVCIS:CSI03:1,2016-01-09T10:00:00Z,29.4412,-92.0613,14.6,11111222 
WAVCIS,ioos:station:WAVCIS:CSI03:1,2016-01-09T11:00:00Z,29.4412,-92.0613,14.31,11111222 
WAVCIS,ioos:station:WAVCIS:CSI03:1,2016-01-09T12:00:00Z,29.4412,-92.0613,13.83,11111222 
WAVCIS,ioos:station:WAVCIS:CSI03:1,2016-01-09T13:00:00Z,29.4412,-92.0613,13.88,11111222 
WAVCIS,ioos:station:WAVCIS:CSI03:1,2016-01-09T14:00:00Z,29.4412,-92.0613,13.71,11111222 
WAVCIS,ioos:station:WAVCIS:CSI03:1,2016-01-09T15:00:00Z,29.4412,-92.0613,14.08,11111222 
WAVCIS,ioos:station:WAVCIS:CSI03:1,2016-01-09T16:00:00Z,29.4412,-92.0613,15.63,11111222 
WAVCIS,ioos:station:WAVCIS:CSI03:1,2016-01-09T17:00:00Z,29.4412,-92.0613,14.97,11111222 
WAVCIS,ioos:station:WAVCIS:CSI03:1,2016-01-09T18:00:00Z,29.4412,-92.0613,15.05,11111222 
WAVCIS,ioos:station:WAVCIS:CSI03:1,2016-01-09T19:00:00Z,29.4412,-92.0613,15.5,11111222 
WAVCIS,ioos:station:WAVCIS:CSI03:1,2016-01-09T20:00:00Z,29.4412,-92.0613,15.48,11111222 
WAVCIS,ioos:station:WAVCIS:CSI03:1,2016-01-09T21:00:00Z,29.4412,-92.0613,15.33,11111222 
WAVCIS,ioos:station:WAVCIS:CSI03:1,2016-01-09T22:00:00Z,29.4412,-92.0613,15.44,11111222 
WAVCIS,ioos:station:WAVCIS:CSI03:1,2016-01-09T23:00:00Z,29.4412,-92.0613,14.62,11111222 
WAVCIS,ioos:station:WAVCIS:CSI03:1,2016-01-10T00:00:00Z,29.4412,-92.0613,13.29,11111222 
WAVCIS,ioos:station:WAVCIS:CSI03:1,2016-01-10T01:00:00Z,29.4412,-92.0613,11.95,11111222 
WAVCIS,ioos:station:WAVCIS:CSI03:1,2016-01-10T02:00:00Z,29.4412,-92.0613,11.19,11111222 
WAVCIS,ioos:station:WAVCIS:CSI03:1,2016-01-10T03:00:00Z,29.4412,-92.0613,10.73,11111222 
WAVCIS,ioos:station:WAVCIS:CSI03:1,2016-01-10T04:00:00Z,29.4412,-92.0613,9.74,11111222 
WAVCIS,ioos:station:WAVCIS:CSI03:1,2016-01-10T05:00:00Z,29.4412,-92.0613,8.61,11111222 
WAVCIS,ioos:station:WAVCIS:CSI03:1,2016-01-10T06:00:00Z,29.4412,-92.0613,8.18,11111222 
WAVCIS,ioos:station:WAVCIS:CSI03:1,2016-01-10T07:00:00Z,29.4412,-92.0613,7.98,11111222 
WAVCIS,ioos:station:WAVCIS:CSI03:1,2016-01-10T08:00:00Z,29.4412,-92.0613,7.62,11111222 
WAVCIS,ioos:station:WAVCIS:CSI03:1,2016-01-10T09:00:00Z,29.4412,-92.0613,7.34,11111222 
WAVCIS,ioos:station:WAVCIS:CSI03:1,2016-01-10T10:00:00Z,29.4412,-92.0613,7.02,11111222 
WAVCIS,ioos:station:WAVCIS:CSI03:1,2016-01-10T11:00:00Z,29.4412,-92.0613,6.725,11111222 
WAVCIS,ioos:station:WAVCIS:CSI03:1,2016-01-10T12:00:00Z,29.4412,-92.0613,6.429,11111222 
WAVCIS,ioos:station:WAVCIS:CSI03:1,2016-01-10T13:00:00Z,29.4412,-92.0613,6.172,11111222 
WAVCIS,ioos:station:WAVCIS:CSI03:1,2016-01-10T14:00:00Z,29.4412,-92.0613,5.966,11111222 
WAVCIS,ioos:station:WAVCIS:CSI03:1,2016-01-10T15:00:00Z,29.4412,-92.0613,5.577,11111222 
WAVCIS,ioos:station:WAVCIS:CSI03:1,2016-01-10T16:00:00Z,29.4412,-92.0613,5.34,11111222 
WAVCIS,ioos:station:WAVCIS:CSI03:1,2016-01-10T17:00:00Z,29.4412,-92.0613,5.494,11111222 
WAVCIS,ioos:station:WAVCIS:CSI03:1,2016-01-10T18:00:00Z,29.4412,-92.0613,6.006,11111222 
WAVCIS,ioos:station:WAVCIS:CSI03:1,2016-01-10T19:00:00Z,29.4412,-92.0613,6.382,11111222 
WAVCIS,ioos:station:WAVCIS:CSI03:1,2016-01-10T20:00:00Z,29.4412,-92.0613,7.12,11111222 
WAVCIS,ioos:station:WAVCIS:CSI03:1,2016-01-10T21:00:00Z,29.4412,-92.0613,7.88,11111222 
WAVCIS,ioos:station:WAVCIS:CSI03:1,2016-01-10T22:00:00Z,29.4412,-92.0613,8.54,11111222 
WAVCIS,ioos:station:WAVCIS:CSI03:1,2016-01-10T23:00:00Z,29.4412,-92.0613,8.83,11111222 
WAVCIS,ioos:station:WAVCIS:CSI03:1,2016-01-11T00:00:00Z,29.4412,-92.0613,8.66,11111222 
WAVCIS,ioos:station:WAVCIS:CSI03:1,2016-01-11T01:00:00Z,29.4412,-92.0613,8.77,11111222 
WAVCIS,ioos:station:WAVCIS:CSI03:1,2016-01-11T02:00:00Z,29.4412,-92.0613,8.49,11111222 
WAVCIS,ioos:station:WAVCIS:CSI03:1,2016-01-11T03:00:00Z,29.4412,-92.0613,8.33,11111222 
WAVCIS,ioos:station:WAVCIS:CSI03:1,2016-01-11T04:00:00Z,29.4412,-92.0613,7.26,11111222 
WAVCIS,ioos:station:WAVCIS:CSI03:1,2016-01-11T05:00:00Z,29.4412,-92.0613,7.12,11111222 
WAVCIS,ioos:station:WAVCIS:CSI03:1,2016-01-11T06:00:00Z,29.4412,-92.0613,6.89,11111222 
WAVCIS,ioos:station:WAVCIS:CSI03:1,2016-01-11T07:00:00Z,29.4412,-92.0613,6.86,11111222 
WAVCIS,ioos:station:WAVCIS:CSI03:1,2016-01-11T08:00:00Z,29.4412,-92.0613,6.88,11111222 
WAVCIS,ioos:station:WAVCIS:CSI03:1,2016-01-11T09:00:00Z,29.4412,-92.0613,6.514,11111222 
WAVCIS,ioos:station:WAVCIS:CSI03:1,2016-01-11T10:00:00Z,29.4412,-92.0613,6.046,11111222 
WAVCIS,ioos:station:WAVCIS:CSI03:1,2016-01-11T11:00:00Z,29.4412,-92.0613,5.95,11111222 
WAVCIS,ioos:station:WAVCIS:CSI03:1,2016-01-11T12:00:00Z,29.4412,-92.0613,5.808,11111222 
WAVCIS,ioos:station:WAVCIS:CSI03:1,2016-01-11T13:00:00Z,29.4412,-92.0613,5.485,11111222 
WAVCIS,ioos:station:WAVCIS:CSI03:1,2016-01-11T14:00:00Z,29.4412,-92.0613,5.99,11111222 
WAVCIS,ioos:station:WAVCIS:CSI03:1,2016-01-11T15:00:00Z,29.4412,-92.0613,6.161,11111222 
WAVCIS,ioos:station:WAVCIS:CSI03:1,2016-01-11T16:00:00Z,29.4412,-92.0613,6.239,11111222 
WAVCIS,ioos:station:WAVCIS:CSI03:1,2016-01-11T17:00:00Z,29.4412,-92.0613,6.384,11111222 
WAVCIS,ioos:station:WAVCIS:CSI03:1,2016-01-11T18:00:00Z,29.4412,-92.0613,6.655,11111222 
WAVCIS,ioos:station:WAVCIS:CSI03:1,2016-01-11T19:00:00Z,29.4412,-92.0613,7.65,11111222 
WAVCIS,ioos:station:WAVCIS:CSI03:1,2016-01-11T20:00:00Z,29.4412,-92.0613,8.28,11111222 
WAVCIS,ioos:station:WAVCIS:CSI03:1,2016-01-11T21:00:00Z,29.4412,-92.0613,9.04,11111222 
WAVCIS,ioos:station:WAVCIS:CSI03:1,2016-01-11T22:00:00Z,29.4412,-92.0613,9.13,11111222 
WAVCIS,ioos:station:WAVCIS:CSI03:1,2016-01-11T23:00:00Z,29.4412,-92.0613,9.3,11111222 
WAVCIS,ioos:station:WAVCIS:CSI03:1,2016-01-12T00:00:00Z,29.4412,-92.0613,9.5,11111222 
WAVCIS,ioos:station:WAVCIS:CSI03:1,2016-01-12T01:00:00Z,29.4412,-92.0613,9.51,11111222 
WAVCIS,ioos:station:WAVCIS:CSI03:1,2016-01-12T02:00:00Z,29.4412,-92.0613,9.54,11111222 
WAVCIS,ioos:station:WAVCIS:CSI03:1,2016-01-12T03:00:00Z,29.4412,-92.0613,9.6,11111222 
WAVCIS,ioos:station:WAVCIS:CSI03:1,2016-01-12T04:00:00Z,29.4412,-92.0613,9.67,11111222 
WAVCIS,ioos:station:WAVCIS:CSI03:1,2016-01-12T05:00:00Z,29.4412,-92.0613,9.55,11111222 